TimeEDT,TemperatureF,Dew PointF,Humidity,Sea Level PressureIn,VisibilityMPH,Wind Direction,Wind SpeedMPH,Gust SpeedMPH,PrecipitationIn,Events,Conditions,WindDirDegrees,DateUTC
12:00 AM,55.4,55.4,100,30.02,10.0,Calm,Calm,-,N/A,,Clear,0,2013-05-10 04:00:00
12:20 AM,55.4,55.4,100,30.02,7.0,SE,3.5,-,N/A,,Scattered Clouds,130,2013-05-10 04:20:00
12:40 AM,53.6,53.6,100,30.02,7.0,SE,4.6,-,N/A,,Clear,140,2013-05-10 04:40:00
1:00 AM,53.6,53.6,100,30.03,10.0,SSE,3.5,-,N/A,,Clear,160,2013-05-10 05:00:00
1:40 AM,53.6,53.6,100,30.03,10.0,Calm,Calm,-,N/A,,Clear,0,2013-05-10 05:40:00
2:00 AM,53.6,53.6,100,30.03,7.0,South,4.6,-,N/A,,Clear,170,2013-05-10 06:00:00
2:20 AM,53.6,53.6,100,30.03,10.0,SSE,3.5,-,N/A,,Clear,160,2013-05-10 06:20:00
2:40 AM,53.6,53.6,100,30.03,10.0,SE,3.5,-,N/A,,Clear,140,2013-05-10 06:40:00
3:00 AM,51.8,51.8,100,30.03,7.0,Calm,Calm,-,N/A,,Clear,0,2013-05-10 07:00:00
3:20 AM,51.8,51.8,100,30.03,7.0,Calm,Calm,-,N/A,,Clear,0,2013-05-10 07:20:00
3:40 AM,50.0,50.0,100,30.02,2.5,Calm,Calm,-,N/A,,Clear,0,2013-05-10 07:40:00
4:00 AM,51.8,51.8,100,30.03,7.0,Calm,Calm,-,N/A,,Clear,0,2013-05-10 08:00:00
4:40 AM,50.0,50.0,100,30.03,7.0,Calm,Calm,-,N/A,,Scattered Clouds,0,2013-05-10 08:40:00
5:00 AM,50.0,50.0,100,30.03,0.5,Calm,Calm,-,N/A,Fog,Fog,0,2013-05-10 09:00:00
5:20 AM,50.0,50.0,100,30.03,0.5,Calm,Calm,-,N/A,Fog,Fog,0,2013-05-10 09:20:00
5:40 AM,50.0,50.0,100,30.03,0.2,Calm,Calm,-,N/A,Fog,Fog,0,2013-05-10 09:40:00
6:00 AM,48.2,48.2,100,30.03,0.5,Calm,Calm,-,N/A,Fog,Fog,0,2013-05-10 10:00:00
6:25 AM,50.0,50.0,100,30.04,1.2,Calm,Calm,-,N/A,,Mist,0,2013-05-10 10:25:00
6:45 AM,51.8,51.8,100,30.04,4.0,Calm,Calm,-,N/A,,Clear,0,2013-05-10 10:45:00
6:50 AM,53.6,53.6,100,30.04,10.0,Calm,Calm,-,N/A,,Clear,0,2013-05-10 10:50:00
7:59 AM,57.2,57.2,100,30.04,10.0,Calm,Calm,-,N/A,,Clear,0,2013-05-10 11:59:00
10:47 AM,75.2,59.0,57,30.03,10.0,West,3.5,-,N/A,,Partly Cloudy,270,2013-05-10 14:47:00
11:55 AM,78.8,60.8,54,30.02,10.0,WSW,8.1,-,N/A,,Clear,240,2013-05-10 15:55:00
12:55 PM,80.6,60.8,51,29.99,10.0,SW,8.1,-,N/A,,Clear,220,2013-05-10 16:55:00
1:47 PM,80.6,59.0,48,29.97,10.0,SSW,6.9,-,N/A,,Clear,200,2013-05-10 17:47:00
2:50 PM,82.4,60.8,48,29.96,10.0,SSW,10.4,17.3,N/A,,Scattered Clouds,210,2013-05-10 18:50:00
3:50 PM,82.4,60.8,48,29.92,10.0,SSW,6.9,-,N/A,,Clear,210,2013-05-10 19:50:00
4:50 PM,80.6,59.0,48,29.91,10.0,South,8.1,-,N/A,,Clear,190,2013-05-10 20:50:00
5:50 PM,78.8,57.2,47,29.88,10.0,South,6.9,-,N/A,,Scattered Clouds,180,2013-05-10 21:50:00
6:50 PM,69.8,60.8,73,29.90,10.0,NW,8.1,13.8,N/A,,Mostly Cloudy,320,2013-05-10 22:50:00
7:26 PM,66.2,64.4,94,29.90,5.0,East,3.5,-,N/A,Rain-Thunderstorm,Light Thunderstorms and Rain,100,2013-05-10 23:26:00
7:50 PM,64.4,62.6,94,29.89,10.0,East,3.5,-,N/A,,Overcast,80,2013-05-10 23:50:00
8:16 PM,66.2,62.6,88,29.95,3.0,NNW,9.2,19.6,N/A,Rain-Thunderstorm,Thunderstorms and Rain,330,2013-05-11 00:16:00
9:05 PM,62.6,62.6,100,29.96,4.0,East,3.5,-,0.02,Rain-Thunderstorm,Thunderstorms and Rain,80,2013-05-11 01:05:00
9:25 PM,62.6,62.6,100,29.96,7.0,SE,3.5,-,0.03,Rain-Thunderstorm,Rain,130,2013-05-11 01:25:00
9:45 PM,62.6,62.6,100,29.95,5.0,Calm,Calm,-,0.06,Rain-Thunderstorm,Rain,0,2013-05-11 01:45:00
10:05 PM,62.6,62.6,100,29.95,3.0,Calm,Calm,-,0.02,Rain-Thunderstorm,Thunderstorms and Rain,0,2013-05-11 02:05:00
10:25 PM,60.8,60.8,100,29.96,5.0,SSE,4.6,-,0.05,Rain-Thunderstorm,Light Thunderstorms and Rain,150,2013-05-11 02:25:00
10:45 PM,62.6,62.6,100,29.94,3.0,East,4.6,-,0.11,Rain,Rain,80,2013-05-11 02:45:00
11:05 PM,62.6,62.6,100,29.97,7.0,South,6.9,-,0.01,Rain-Thunderstorm,Thunderstorms and Rain,190,2013-05-11 03:05:00
11:25 PM,60.8,60.8,100,29.94,4.0,ESE,3.5,-,0.10,Rain,Rain,120,2013-05-11 03:25:00
11:45 PM,60.8,60.8,100,29.92,7.0,East,4.6,-,0.12,Rain-Thunderstorm,Light Thunderstorms and Rain,90,2013-05-11 03:45:00